Regional Weather Roundup
Issued by NWS

Home | Current Version | Previous Version | Text Only | Print | Product List | Glossary Off
Versions: 1 2 3 4 5 6 7 8 9 10 11 12 13 14 15 16 17 18 19 20 21 22 23 24 25 26 27 28 29 30 31 32 33 34 35 36 37 38 39 40 41 42 43 44 45 46 47 48 49 50

000
ASUS45 KPSR 301400
RWRAZ

PRELIMINARY ARIZONA REGIONAL HOURLY WEATHER ROUNDUP
NATIONAL WEATHER SERVICE PHOENIX AZ
700 AM MST THU OCT 30 2014

NOTE: FAIR INDICATES FEW OR NO CLOUDS BELOW 12,000 FEET WITH NO
SIGNIFICANT WEATHER AND/OR OBSTRUCTIONS TO VISIBILITY.

AZZ001>003-036-301500-
NORTHWEST ARIZONA

CITY           SKY/WX    TMP DP  RH WIND       PRES   REMARKS
KINGMAN        CLEAR     51  29  42 NE7       30.14R
$$

AZZ004>008-015-016-018-301500-
NORTH CENTRAL ARIZONA

CITY           SKY/WX    TMP DP  RH WIND       PRES   REMARKS
GRAND CANYON   PTCLDY    26  17  68 CALM      30.34S
PRESCOTT       PTCLDY    42  30  62 S5        30.24S
FLAGSTAFF      PTCLDY    27  21  78 CALM      30.36R
PAYSON         CLEAR     57  27  30 NE3       30.26R
PAGE           PTCLDY    45  23  42 CALM      30.28R
$$

AZZ009>014-017-301500-
NORTHEAST ARIZONA

CITY           SKY/WX    TMP DP  RH WIND       PRES   REMARKS
WINSLOW        NOT AVBL
SAINT JOHNS    MOCLDY    35  26  69 CALM      30.32R
WINDOW ROCK    PTCLDY    25  12  58 CALM      30.39R
$$

AZZ023-301500-
GREATER PHOENIX AREA

CITY           SKY/WX    TMP DP  RH WIND       PRES   REMARKS
PHOENIX        PTCLDY    67  44  43 E7        30.00R
BUCKEYE          N/A     54  37  54 CALM      30.00R
GLENDALE       CLEAR     61  45  55 CALM      30.01S
DEER VALLEY    CLEAR     66  38  35 NE7       30.01R
SCOTTSDALE     CLEAR     63  46  54 CALM      30.03R
MESA-GATEWAY   PTCLDY    57  39  51 E7        30.04R
CHANDLER       PTCLDY    57  45  62 NE7       30.02R
$$

AZZ027-028-301500-
SOUTHWEST MARICOPA COUNTY AND PINAL COUNTY

CITY           SKY/WX    TMP DP  RH WIND       PRES   REMARKS
CASA GRANDE    CLEAR     55  41  58 CALM      30.03R
GILA BEND      MOSUNNY   61  41  48 E5        29.99
$$

AZZ503-504-507>509-301500-
SOUTHEAST ARIZONA

CITY           SKY/WX    TMP DP  RH WIND       PRES   REMARKS
TUCSON         CLEAR     60  40  47 E8        30.10R
DAVIS-MONTHAN  CLEAR     62  39  43 SE10      30.08R
RYAN FIELD       N/A     55  45  67 SE7       30.09R
NOGALES        CLEAR     48  38  68 SE3       30.15R
SIERRA VISTA   PTCLDY    54  39  58 CALM      30.20R
SAFFORD        CLEAR     49  38  65 SE7       30.15R
$$

AZZ020-021-025-026-031-301500-
SOUTHWEST ARIZONA

CITY           SKY/WX    TMP DP  RH WIND       PRES   REMARKS
YUMA           NOT AVBL
$$

CAZ031-033-041-043-047-048-061-301500-
SOUTHERN CALIFORNIA

CITY           SKY/WX    TMP DP  RH WIND       PRES   REMARKS
DOWNTOWN L.A.  PTCLDY    62  53  72 CALM      29.97S
L.A. AIRPORT   MOCLDY    64  61  90 CALM      29.97F
SAN DIEGO      MOCLDY    62  57  83 CALM      29.99S
BURBANK        PTCLDY    59  42  53 CALM      29.98S
ONTARIO        MOCLDY    60  48  64 CALM      29.99S
RIVERSIDE      PTCLDY    56  48  74 E3        30.00S
PALM SPRINGS   PTCLDY    64  34  32 MISG      29.99R
EL CENTRO NAS  MOCLDY    59  26  28 W9        29.93S
IMPERIAL       MOCLDY    59  34  39 W3        29.93S
BLYTHE         CLEAR     62  27  26 SW9       29.98R
$$

NVZ020-UTZ003-301500-
SOUTHERN NEVADA-UTAH

CITY           SKY/WX    TMP DP  RH WIND       PRES   REMARKS
LAS VEGAS      NOT AVBL
SALT LAKE CITY PTCLDY    39  29  67 SE7       30.27S WCI  34
$$

NMZ009-TXZ055-301500-
NEW MEXICO-WEST TEXAS

CITY           SKY/WX    TMP DP  RH WIND       PRES   REMARKS
ALBUQUERQUE    PTCLDY    47  13  25 N8        30.32R
EL PASO        CLEAR     54  38  54 N9        30.21R
$$


........................KEY........................
SKY/WX - SKY CONDITION/WEATHER
TMP    - TEMPERATURE IN FAHRENHEIT
DP     - DEW POINT IN FAHRENHEIT
RH     - RELATIVE HUMIDITY IN PERCENT
WIND   - DIRECTION AND SPEED IN MILES PER HOUR (MPH)
VRB    - VARIABLE WIND DIRECTION
PRES   - MEAN SEA LEVEL PRESSURE IN INCHES OF MERCURY
         F - FALLING PRESSURE   R - RISING PRESSURE
         S - STEADY PRESSURE
VSB    - VISIBILITY IN MILES
HX     - HEAT INDEX IN FAHRENHEIT
WCI    - WIND CHILL INDEX IN FAHRENHEIT
TC     - TEMPERATURE IN CELSIUS WHICH IS ALSO KNOWN AS
         TEMPERATURE IN CENTIGRADE
AFB    - AIR FORCE BASE
         LUKE AFB IS LUKE AIR FORCE BASE
         DAVIS-MONTHAN IS DAVIS-MONTHAN AIR FORCE BASE
NAS    - NAVAL AIR STATION
         EL CENTRO NAS IS EL CENTRO NAVAL AIR STATION
N/A    - NOT AVAILABLE



USA.gov is the U.S. government's official web portal to all federal, state and local government web resources and services.